Regional Weather Roundup
Issued by NWS

Home | Current Version | Previous Version | Graphics & Text | Print | Product List | Glossary On
Versions: 1 2 3 4 5 6 7 8 9 10 11 12 13 14 15 16 17 18 19 20 21 22 23 24 25 26 27 28 29 30 31 32 33 34 35 36 37 38 39 40 41 42 43 44 45 46 47 48 49 50
000
ASUS43 KIND 221159
RWRIN

WEATHER ROUNDUP FOR INDIANA
NATIONAL WEATHER SERVICE INDIANAPOLIS IN
800 AM EDT TUE JUL 22 2014

NOTE: "FAIR" INDICATES FEW OR NO CLOUDS BELOW 12,000 FEET WITH NO
SIGNIFICANT WEATHER AND/OR OBSTRUCTIONS TO VISIBILITY.

* - STATION DOES NOT REPORT WEATHER SUCH AS PRECIPITATION OR FOG.

+ - STATION NOT QUALITY CONTROLLED BY THE NATIONAL WEATHER SERVICE.
    USE DATA WITH CAUTION...ESPECIALLY DEWPOINT AND RELATIVE
    HUMIDITY OBSERVATIONS.

INZ001>003-010>013-019-020-221300-
NORTHWEST INDIANA

CITY           SKY/WX    TMP DP  RH WIND       PRES   REMARKS
GARY /AIRPORT/ SUNNY     70  64  83 S5        30.09R
VALPARAISO     SUNNY     67  63  87 S3        30.10R FOG
6HR MIN TEMP:  63; 6HR MAX TEMP:  70;


$$

LMZ046-743>745-221300-
SOUTHERN LAKE MICHIGAN

STATION/POSITION TIME  TEMP WIND        PRES
                       AIR  DIR/SP/G
                 (UTC) (F)  (DEG/KT/KT) (MB)
BURNS HARBOR     1100   69  190/  8/ 10 1018.6S
MICHIGAN CITY    1100   70  150/ 10/ 15   N/A

$$

INZ004-005-014>016-021>024-221300-
NORTH CENTRAL INDIANA

CITY           SKY/WX    TMP DP  RH WIND       PRES   REMARKS
GOSHEN         SUNNY     69  64  84 S3        30.11R
6HR MIN TEMP:  63; 6HR MAX TEMP:  69;

SOUTH BEND     SUNNY     70  62  76 CALM      30.11R
6HR MIN TEMP:  65; 6HR MAX TEMP:  70;


$$

INZ006>009-017-018-025>027-221300-
NORTHEAST INDIANA

CITY           SKY/WX    TMP DP  RH WIND       PRES   REMARKS
ANGOLA *+      SUNNY     70  59  68 CALM      30.12S
FORT WAYNE     SUNNY     67  63  87 CALM      30.12S
6HR MIN TEMP:  62; 6HR MAX TEMP:  68;


$$

INZ028-029-035-036-043>045-051>053-221300-
WEST CENTRAL INDIANA

CITY           SKY/WX    TMP DP  RH WIND       PRES   REMARKS
GREENCASTLE +  SUNNY     64  63  94 CALM      30.12S FOG
LAFAYETTE      SUNNY     66  64  93 CALM      30.10S
6HR MIN TEMP:  61; 6HR MAX TEMP:  66;

TERRE HAUTE    SUNNY     65  63  93 CALM      30.11S FOG
6HR MIN TEMP:  61; 6HR MAX TEMP:  65;


$$

INZ030>032-037>040-046>048-054>057-064-065-221300-
CENTRAL INDIANA

CITY           SKY/WX    TMP DP  RH WIND       PRES   REMARKS
INDIANAPOLIS   SUNNY     72  64  76 CALM      30.11S
6HR MIN TEMP:  67; 6HR MAX TEMP:  73;

-EAGLE CREEK   SUNNY     69  66  90 CALM      30.11S FOG
6HR MIN TEMP:  65; 6HR MAX TEMP:  70;

KOKOMO *+      SUNNY     66  64  94 S3        30.11F
MT COMFORT *+  SUNNY     64 N/A N/A CALM      30.12F
SHELBYVILLE    SUNNY     68  63  84 E3        30.11F HAZE
6HR MIN TEMP:  63; 6HR MAX TEMP:  68;


$$

INZ033-034-041-042-049-050-058-059-221300-
EAST CENTRAL INDIANA

CITY           SKY/WX    TMP DP  RH WIND       PRES   REMARKS
MUNCIE         SUNNY     69  64  84 CALM      30.13S
6HR MIN TEMP:  63; 6HR MAX TEMP:  69;


$$

INZ060-061-067>069-081>083-085>088-221300-
SOUTHWEST INDIANA

CITY           SKY/WX    TMP DP  RH WIND       PRES   REMARKS
EVANSVILLE     SUNNY     70  66  87 CALM      30.11S FOG
6HR MIN TEMP:  68; 6HR MAX TEMP:  72;

HUNTINGBURG *+ SUNNY     66  64  94 CALM      30.12S
6HR MIN TEMP:  64; 6HR MAX TEMP:  70;


$$

INZ062-063-066-070>080-084-089>092-221300-
SOUTH CENTRAL AND SOUTHEAST INDIANA

CITY           SKY/WX    TMP DP  RH WIND       PRES   REMARKS
BLOOMINGTON    SUNNY     66  63  90 CALM      30.12R
6HR MIN TEMP:  60; 6HR MAX TEMP:  66;


$$



USA.gov is the U.S. government's official web portal to all federal, state and local government web resources and services.